NU4F Weather Reports


Display with metric or nautical units.
time (UTC)temp
F
wind
direction
speed
MPH
gust
MPH
rain 1hr
in
rain 24hr
in
rain mn
in
humidity
%
barometer
mb
20260508053517 80 215 1.0 4.0 0.00 0.00 0.00 75 1014.2
20260508052517 80 235 0.0 2.0 0.00 0.00 0.00 74 1014.2
20260508051517 80 205 0.0 3.0 0.00 0.00 0.00 74 1014.3
20260508050518 80 202 1.0 3.0 0.00 0.00 0.00 74 1014.3
20260508045558 80 220 1.0 3.0 0.00 0.00 0.00 74 1014.3
20260508044517 80 222 0.0 3.0 0.00 0.00 0.00 74 1014.3
20260508043538 80 164 1.0 4.0 0.00 0.00 0.00 73 1014.3
20260508042518 80 172 0.0 3.0 0.00 0.00 0.00 72 1014.3
20260508041518 81 179 0.0 3.0 0.00 0.00 0.00 72 1014.4
20260508040518 81 153 0.0 3.0 0.00 0.00 0.00 72 1014.4
20260508035516 81 117 1.0 4.0 0.00 0.00 0.00 72 1014.5
20260508034515 81 121 1.0 5.0 0.00 0.00 0.00 72 1014.5
20260508033537 81 131 1.0 4.0 0.00 0.00 0.00 72 1014.5
20260508032516 81 135 1.0 5.0 0.00 0.00 0.00 71 1014.5
20260508031516 81 106 1.0 5.0 0.00 0.00 0.00 70 1014.6
20260508030516 81 108 0.0 3.0 0.00 0.00 0.00 69 1014.6
20260508025536 81 107 1.0 3.0 0.00 0.00 0.00 69 1014.6
20260508024517 81 102 1.0 3.0 0.00 0.00 0.00 69 1014.5
20260508023517 81 109 1.0 3.0 0.00 0.00 0.00 68 1014.5
20260508022517 81 112 1.0 3.0 0.00 0.00 0.00 67 1014.4
20260508021517 82 101 2.0 3.0 0.00 0.00 0.00 66 1014.4
20260508020518 82 134 0.0 3.0 0.00 0.00 0.00 66 1014.4
20260508015518 82 114 1.0 3.0 0.00 0.00 0.00 66 1014.3
20260508014518 82 165 1.0 5.0 0.00 0.00 0.00 66 1014.2
20260508013518 82 145 1.0 3.0 0.00 0.00 0.00 66 1014.2
20260508012518 82 177 1.0 3.0 0.00 0.00 0.00 65 1014.2
20260508011515 82 108 1.0 3.0 0.00 0.00 0.00 65 1014.1
20260508010518 82 117 1.0 3.0 0.00 0.00 0.00 64 1014.1
20260508005536 82 120 1.0 5.0 0.00 0.00 0.00 64 1014.0
20260508004516 82 114 2.0 5.0 0.00 0.00 0.00 64 1014.0
20260508003516 83 110 2.0 5.0 0.00 0.00 0.00 64 1013.8
20260508002537 83 136 1.0 4.0 0.00 0.00 0.00 64 1013.9
20260508001536 83 120 1.0 5.0 0.00 0.00 0.00 63 1013.8
20260508000517 83 119 2.0 5.0 0.00 0.00 0.00 62 1013.8
20260507235516 83 97 3.0 6.0 0.00 0.00 0.00 62 1013.7
20260507234517 84 118 2.0 6.0 0.00 0.00 0.00 61 1013.6
20260507233517 84 114 2.0 7.0 0.00 0.00 0.00 61 1013.7
20260507232517 85 106 2.0 5.0 0.00 0.00 0.00 59 1013.6
20260507231517 85 114 2.0 8.0 0.00 0.00 0.00 57 1013.6
20260507230518 86 99 2.0 6.0 0.00 0.00 0.00 56 1013.5
20260507225518 86 117 2.0 5.0 0.00 0.00 0.00 56 1013.5
20260507224538 86 106 3.0 8.0 0.00 0.00 0.00 52 1013.5
20260507223518 86 106 4.0 10.0 0.00 0.00 0.00 52 1013.4
20260507222515 87 109 4.0 9.0 0.00 0.00 0.00 51 1013.3
20260507221516 87 117 3.0 8.0 0.00 0.00 0.00 54 1013.5
20260507220516 87 108 3.0 9.0 0.00 0.00 0.00 52 1013.4
20260507215536 88 115 3.0 6.0 0.00 0.00 0.00 51 1013.4
20260507214516 88 112 3.0 7.0 0.00 0.00 0.00 53 1013.4
20260507213516 88 101 2.0 6.0 0.00 0.00 0.00 52 1013.5
20260507212516 87 104 3.0 5.0 0.00 0.00 0.00 54 1013.4
20260507211517 88 97 5.0 9.0 0.00 0.00 0.00 53 1013.3
20260507210517 88 98 4.0 9.0 0.00 0.00 0.00 52 1013.4
20260507205537 88 113 4.0 10.0 0.00 0.00 0.00 52 1013.5
20260507204517 87 111 5.0 10.0 0.00 0.00 0.00 52 1013.4
20260507203517 87 100 5.0 10.0 0.00 0.00 0.00 53 1013.4
20260507202517 88 115 6.0 12.0 0.00 0.00 0.00 54 1013.5
20260507201518 88 101 5.0 8.0 0.00 0.00 0.00 54 1013.6
20260507200518 88 104 3.0 8.0 0.00 0.00 0.00 54 1013.8
20260507195518 88 89 5.0 9.0 0.00 0.00 0.00 56 1013.9
20260507194518 88 103 3.0 9.0 0.00 0.00 0.00 55 1014.1
20260507193539 88 90 4.0 7.0 0.00 0.00 0.00 56 1014.1
20260507192515 89 114 4.0 9.0 0.00 0.00 0.00 55 1014.2
20260507191516 89 110 5.0 9.0 0.00 0.00 0.00 54 1014.3
20260507190516 90 107 3.0 9.0 0.00 0.00 0.00 53 1014.5
20260507185516 89 113 4.0 10.0 0.00 0.00 0.00 55 1014.5
20260507184517 89 104 4.0 7.0 0.00 0.00 0.00 55 1014.6
20260507183536 89 103 4.0 8.0 0.00 0.00 0.00 54 1014.9
20260507182517 89 94 5.0 8.0 0.00 0.00 0.00 55 1014.9
20260507181517 89 100 4.0 8.0 0.00 0.00 0.00 54 1015.1
20260507180517 90 106 4.0 9.0 0.00 0.00 0.00 54 1015.3
20260507175517 89 147 2.0 5.0 0.00 0.00 0.00 54 1015.5
20260507174517 89 109 2.0 7.0 0.00 0.00 0.00 56 1015.6
20260507173517 89 96 4.0 8.0 0.00 0.00 0.00 56 1015.6
20260507172518 90 114 3.0 7.0 0.00 0.00 0.00 55 1015.7
20260507171538 89 156 2.0 5.0 0.00 0.00 0.00 55 1015.9
20260507170517 88 97 4.0 8.0 0.00 0.00 0.00 58 1015.8
20260507165518 88 99 4.0 8.0 0.00 0.00 0.00 59 1015.9
20260507164518 88 92 4.0 8.0 0.00 0.00 0.00 59 1015.9
20260507163518 88 95 4.0 8.0 0.00 0.00 0.00 59 1016.0
20260507162515 88 95 3.0 8.0 0.00 0.00 0.00 58 1016.2
20260507161536 88 103 4.0 9.0 0.00 0.00 0.00 58 1016.2
20260507160516 88 102 2.0 6.0 0.00 0.00 0.00 58 1016.5
20260507155516 87 84 4.0 8.0 0.00 0.00 0.00 60 1016.5
20260507154516 87 96 3.0 7.0 0.00 0.00 0.00 59 1016.6
20260507153536 87 79 2.0 6.0 0.00 0.00 0.00 60 1016.7
20260507152516 88 101 4.0 9.0 0.00 0.00 0.00 60 1016.7
20260507151516 87 119 2.0 8.0 0.00 0.00 0.00 60 1017.0
20260507150517 87 302 1.0 3.0 0.00 0.00 0.00 54 1017.1
20260507145517 86 230 2.0 4.0 0.00 0.00 0.00 55 1016.7
20260507144517 85 281 3.0 7.0 0.00 0.00 0.00 58 1016.9
20260507143517 86 244 2.0 6.0 0.00 0.00 0.00 58 1016.8
20260507142518 86 83 1.0 3.0 0.00 0.00 0.00 59 1017.0
20260507141517 85 228 2.0 5.0 0.00 0.00 0.00 59 1017.0
20260507140518 84 265 2.0 4.0 0.00 0.00 0.00 62 1017.1
20260507135559 83 223 2.0 5.0 0.00 0.00 0.00 63 1017.2
20260507134518 83 287 1.0 3.0 0.00 0.00 0.00 66 1017.1
20260507133518 83 244 2.0 4.0 0.00 0.00 0.00 66 1017.2
20260507132516 83 246 2.0 4.0 0.00 0.00 0.00 66 1017.1
20260507131516 83 258 2.0 6.0 0.00 0.00 0.00 67 1017.2
20260507130516 82 265 2.0 5.0 0.00 0.00 0.00 68 1017.3
20260507125536 82 218 1.0 4.0 0.00 0.00 0.00 68 1017.2
20260507124516 82 237 1.0 3.0 0.00 0.00 0.00 69 1017.3
20260507123516 81 307 1.0 3.0 0.00 0.00 0.00 70 1017.2
20260507122517 81 302 0.0 2.0 0.00 0.00 0.00 70 1017.1
20260507121537 80 285 0.0 3.0 0.00 0.00 0.00 72 1017.1
20260507120517 79 289 0.0 2.0 0.00 0.00 0.00 74 1016.8
20260507115517 78 300 0.0 2.0 0.00 0.00 0.00 76 1016.7
20260507114537 77 310 0.0 1.0 0.00 0.00 0.00 78 1016.5
20260507113537 75 0.0 0.0 0.00 0.00 0.00 82 1016.3
20260507112530 73 0.0 0.0 0.00 0.00 0.00 84 1016.2
20260507111529 72 0.0 0.0 0.00 0.00 0.00 85 1015.9
20260507110529 72 282 0.0 1.0 0.00 0.00 0.00 84 1015.9
20260507105530 71 338 0.0 0.0 0.00 0.00 0.00 86 1015.5
20260507104530 71 4 0.0 1.0 0.00 0.00 0.00 85 1015.3
20260507103530 71 0.0 0.0 0.00 0.00 0.00 86 1015.1
20260507102530 71 0.0 0.0 0.00 0.00 0.00 85 1015.0
20260507101516 71 0.0 0.0 0.00 0.00 0.00 85 1014.9
20260507100516 71 0.0 0.0 0.00 0.00 0.00 85 1014.7
20260507095536 71 0.0 0.0 0.00 0.00 0.00 85 1014.8
20260507094536 71 356 0.0 0.0 0.00 0.00 0.00 84 1014.8
20260507093516 71 0.0 0.0 0.00 0.00 0.00 84 1014.7
20260507092516 71 0.0 0.0 0.00 0.00 0.00 84 1014.6
20260507091537 71 0.0 0.0 0.00 0.00 0.00 83 1014.6
20260507090516 71 0.0 0.0 0.00 0.00 0.00 83 1014.6
20260507085517 72 357 0.0 0.0 0.00 0.00 0.00 82 1014.5
20260507084517 72 312 0.0 1.0 0.00 0.00 0.00 82 1014.5
20260507083517 72 0.0 0.0 0.00 0.00 0.00 81 1014.4
20260507082517 72 0.0 0.0 0.00 0.00 0.00 81 1014.5
20260507081518 73 0.0 0.0 0.00 0.00 0.00 80 1014.6
20260507080518 73 0.0 0.0 0.00 0.00 0.00 80 1014.6
20260507075518 73 0.0 0.0 0.00 0.00 0.00 79 1014.6
20260507074518 73 0.0 0.0 0.00 0.00 0.00 79 1014.7
20260507073538 73 0.0 0.0 0.00 0.00 0.00 79 1014.8
20260507072536 73 0.0 0.0 0.00 0.00 0.00 79 1014.8
20260507071516 73 34 0.0 1.0 0.00 0.00 0.00 79 1015.0
20260507070537 73 282 0.0 1.0 0.00 0.00 0.00 79 1015.1
20260507065517 73 310 0.0 1.0 0.00 0.00 0.00 78 1015.0
20260507064516 74 0.0 0.0 0.00 0.00 0.00 78 1015.1
20260507063517 74 0.0 0.0 0.00 0.00 0.00 77 1015.2
20260507062517 74 0.0 0.0 0.00 0.00 0.00 76 1015.2
20260507061517 74 40 0.0 1.0 0.00 0.00 0.00 76 1015.2
20260507060517 74 0.0 0.0 0.00 0.00 0.00 76 1015.4
20260507055517 74 0.0 0.0 0.00 0.00 0.00 75 1015.6
20260507054518 75 0.0 0.0 0.00 0.00 0.00 74 1015.7